Time,TemperatureF,DewpointF,PressureIn,WindDirection,WindDirectionDegrees,WindSpeedMPH,WindSpeedGustMPH,Humidity,HourlyPrecipIn,Conditions,Clouds,dailyrainin,SoftwareType,DateUTC
2013-08-21 00:00:00,68.1,63.4,30.07,NNW,348,0.0,0.0,85,0.00,,,0.00,Wunderground v.1.15,2013-08-21 04:00:00,
2013-08-21 00:05:00,67.9,63.2,30.07,NNW,348,0.0,0.0,85,0.00,,,0.00,Wunderground v.1.15,2013-08-21 04:05:00,
2013-08-21 00:15:00,67.6,63.3,30.07,NNW,348,0.0,0.0,86,0.00,,,0.00,Wunderground v.1.15,2013-08-21 04:15:00,
2013-08-21 00:20:00,67.4,63.1,30.07,NNW,348,0.0,0.0,86,0.00,,,0.00,Wunderground v.1.15,2013-08-21 04:20:00,
2013-08-21 00:25:00,67.4,63.1,30.07,NNW,348,0.0,0.0,86,0.00,,,0.00,Wunderground v.1.15,2013-08-21 04:25:00,
2013-08-21 00:30:00,67.3,63.3,30.07,NNW,348,0.0,0.0,87,0.00,,,0.00,Wunderground v.1.15,2013-08-21 04:30:00,
2013-08-21 00:40:00,67.1,63.1,30.07,NNW,348,0.0,0.0,87,0.00,,,0.00,Wunderground v.1.15,2013-08-21 04:40:00,
2013-08-21 00:45:00,66.9,62.9,30.07,NNW,348,0.0,0.0,87,0.00,,,0.00,Wunderground v.1.15,2013-08-21 04:45:00,
2013-08-21 00:50:00,66.8,63.1,30.07,NNW,348,0.0,0.0,88,0.00,,,0.00,Wunderground v.1.15,2013-08-21 04:50:00,
2013-08-21 01:00:00,66.6,62.9,30.07,NNW,348,0.0,0.0,88,0.00,,,0.00,Wunderground v.1.15,2013-08-21 05:00:00,
2013-08-21 01:10:00,66.6,63.3,30.08,NNW,348,0.0,0.0,89,0.00,,,0.00,Wunderground v.1.15,2013-08-21 05:10:00,
2013-08-21 01:15:00,66.4,63.1,30.08,NNW,348,0.0,0.0,89,0.00,,,0.00,Wunderground v.1.15,2013-08-21 05:15:00,
2013-08-21 01:20:00,66.3,63.0,30.07,NNW,348,0.0,0.0,89,0.00,,,0.00,Wunderground v.1.15,2013-08-21 05:20:00,
2013-08-21 01:30:00,66.1,63.1,30.07,NNW,348,0.0,0.0,90,0.00,,,0.00,Wunderground v.1.15,2013-08-21 05:30:00,
2013-08-21 01:40:00,66.0,63.0,30.07,NNW,348,0.0,0.0,90,0.00,,,0.00,Wunderground v.1.15,2013-08-21 05:40:00,
2013-08-21 01:50:00,65.8,62.8,30.07,NNW,348,0.0,0.0,90,0.00,,,0.00,Wunderground v.1.15,2013-08-21 05:50:00,
2013-08-21 01:55:00,65.8,63.1,30.07,NNW,348,0.0,0.0,91,0.00,,,0.00,Wunderground v.1.15,2013-08-21 05:55:00,
2013-08-21 02:00:00,65.6,62.9,30.07,NNW,348,0.0,0.0,91,0.00,,,0.00,Wunderground v.1.15,2013-08-21 06:00:00,
2013-08-21 02:06:00,65.6,62.9,30.07,NNW,348,0.0,0.0,91,0.00,,,0.00,Wunderground v.1.15,2013-08-21 06:06:00,
2013-08-21 02:15:00,65.3,62.6,30.07,NNW,348,0.0,0.0,91,0.00,,,0.00,Wunderground v.1.15,2013-08-21 06:15:00,
2013-08-21 02:20:00,65.2,62.8,30.07,NNW,348,0.0,0.0,92,0.00,,,0.00,Wunderground v.1.15,2013-08-21 06:20:00,
2013-08-21 02:31:00,65.0,62.6,30.07,NNW,348,0.0,0.0,92,0.00,,,0.00,Wunderground v.1.15,2013-08-21 06:31:00,
2013-08-21 02:40:00,64.8,62.4,30.07,NNW,348,0.0,0.0,92,0.00,,,0.00,Wunderground v.1.15,2013-08-21 06:40:00,
2013-08-21 02:45:00,64.8,62.4,30.07,NNW,348,0.0,0.0,92,0.00,,,0.00,Wunderground v.1.15,2013-08-21 06:45:00,
2013-08-21 02:50:00,64.7,62.6,30.07,NNW,348,0.0,0.0,93,0.00,,,0.00,Wunderground v.1.15,2013-08-21 06:50:00,
2013-08-21 03:00:00,64.5,62.4,30.07,NNW,348,0.0,0.0,93,0.00,,,0.00,Wunderground v.1.15,2013-08-21 07:00:00,
2013-08-21 03:05:00,64.5,62.4,30.07,NNW,348,0.0,0.0,93,0.00,,,0.00,Wunderground v.1.15,2013-08-21 07:05:00,
2013-08-21 03:10:00,64.5,62.4,30.07,NNW,348,0.0,0.0,93,0.00,,,0.00,Wunderground v.1.15,2013-08-21 07:10:00,
2013-08-21 03:20:00,64.2,62.1,30.07,NNW,348,0.0,0.0,93,0.00,,,0.00,Wunderground v.1.15,2013-08-21 07:20:00,
2013-08-21 03:25:00,64.0,61.9,30.07,NNW,348,0.0,0.0,93,0.00,,,0.00,Wunderground v.1.15,2013-08-21 07:25:00,
2013-08-21 03:30:00,63.9,61.8,30.07,NNW,348,0.0,0.0,93,0.00,,,0.00,Wunderground v.1.15,2013-08-21 07:30:00,
2013-08-21 03:40:00,63.9,61.8,30.08,NNW,348,0.0,0.0,93,0.00,,,0.00,Wunderground v.1.15,2013-08-21 07:40:00,
2013-08-21 03:50:00,63.7,61.6,30.08,NNW,348,0.0,0.0,93,0.00,,,0.00,Wunderground v.1.15,2013-08-21 07:50:00,
2013-08-21 03:55:00,63.5,61.4,30.08,NNW,348,0.0,0.0,93,0.00,,,0.00,Wunderground v.1.15,2013-08-21 07:55:00,
2013-08-21 04:00:00,63.5,61.7,30.08,NNW,348,0.0,0.0,94,0.00,,,0.00,Wunderground v.1.15,2013-08-21 08:00:00,
2013-08-21 04:05:00,63.4,61.6,30.08,NNW,348,0.0,0.0,94,0.00,,,0.00,Wunderground v.1.15,2013-08-21 08:05:00,
2013-08-21 04:15:00,63.2,61.4,30.08,NNW,348,0.0,0.0,94,0.00,,,0.00,Wunderground v.1.15,2013-08-21 08:15:00,
2013-08-21 04:25:00,63.2,61.4,30.08,NNW,348,0.0,0.0,94,0.00,,,0.00,Wunderground v.1.15,2013-08-21 08:25:00,
2013-08-21 04:35:00,63.1,61.3,30.08,NNW,348,0.0,0.0,94,0.00,,,0.00,Wunderground v.1.15,2013-08-21 08:35:00,
2013-08-21 04:45:00,62.9,61.1,30.08,NNW,348,0.0,0.0,94,0.00,,,0.00,Wunderground v.1.15,2013-08-21 08:45:00,
2013-08-21 04:55:00,62.7,60.9,30.08,NNW,348,0.0,0.0,94,0.00,,,0.00,Wunderground v.1.15,2013-08-21 08:55:00,
2013-08-21 05:00:00,62.6,60.8,30.08,NNW,348,0.0,0.0,94,0.00,,,0.00,Wunderground v.1.15,2013-08-21 09:00:00,
2013-08-21 05:10:00,62.4,60.9,30.09,NNW,348,0.0,0.0,95,0.00,,,0.00,Wunderground v.1.15,2013-08-21 09:10:00,
2013-08-21 05:15:00,62.4,60.9,30.09,NNW,348,0.0,0.0,95,0.00,,,0.00,Wunderground v.1.15,2013-08-21 09:15:00,
2013-08-21 05:25:00,62.4,60.9,30.09,NNW,348,0.0,0.0,95,0.00,,,0.00,Wunderground v.1.15,2013-08-21 09:25:00,
2013-08-21 05:35:00,62.3,60.8,30.09,NNW,348,0.0,0.0,95,0.00,,,0.00,Wunderground v.1.15,2013-08-21 09:35:00,
2013-08-21 05:45:00,62.1,60.7,30.09,NNW,348,0.0,0.0,95,0.00,,,0.00,Wunderground v.1.15,2013-08-21 09:45:00,
2013-08-21 05:55:00,62.1,60.7,30.09,NNW,348,0.0,0.0,95,0.00,,,0.00,Wunderground v.1.15,2013-08-21 09:55:00,
2013-08-21 06:00:00,62.0,60.6,30.09,NNW,348,0.0,0.0,95,0.00,,,0.00,Wunderground v.1.15,2013-08-21 10:00:00,
2013-08-21 06:10:00,61.8,60.4,30.10,NNW,348,0.0,0.0,95,0.00,,,0.00,Wunderground v.1.15,2013-08-21 10:10:00,
2013-08-21 06:15:00,61.8,60.4,30.10,NNW,348,0.0,0.0,95,0.00,,,0.00,Wunderground v.1.15,2013-08-21 10:15:00,
2013-08-21 06:20:00,61.8,60.4,30.10,NNW,348,0.0,0.0,95,0.00,,,0.00,Wunderground v.1.15,2013-08-21 10:20:00,
2013-08-21 06:30:00,61.8,60.6,30.10,NNW,348,0.0,0.0,96,0.00,,,0.00,Wunderground v.1.15,2013-08-21 10:30:00,
2013-08-21 06:35:00,61.8,60.6,30.11,NNW,348,0.0,0.0,96,0.00,,,0.00,Wunderground v.1.15,2013-08-21 10:35:00,
2013-08-21 06:45:00,61.8,60.6,30.11,NNW,348,0.0,0.0,96,0.00,,,0.00,Wunderground v.1.15,2013-08-21 10:45:00,
2013-08-21 06:55:00,62.0,60.8,30.11,NNW,348,0.0,0.0,96,0.00,,,0.00,Wunderground v.1.15,2013-08-21 10:55:00,
2013-08-21 07:05:00,62.3,61.4,30.11,NNW,348,0.0,0.0,97,0.00,,,0.00,Wunderground v.1.15,2013-08-21 11:05:00,
2013-08-21 07:15:00,62.9,62.0,30.11,NNW,348,0.0,0.0,97,0.00,,,0.00,Wunderground v.1.15,2013-08-21 11:15:00,
2013-08-21 07:20:00,63.2,62.3,30.11,NNW,348,0.0,0.0,97,0.00,,,0.00,Wunderground v.1.15,2013-08-21 11:20:00,
2013-08-21 07:25:00,63.5,62.6,30.11,NNW,348,0.0,0.0,97,0.00,,,0.00,Wunderground v.1.15,2013-08-21 11:25:00,
2013-08-21 07:30:00,64.0,63.1,30.11,NNW,348,0.0,0.0,97,0.00,,,0.00,Wunderground v.1.15,2013-08-21 11:30:00,
2013-08-21 07:40:00,64.5,63.3,30.11,NNW,348,0.0,0.0,96,0.00,,,0.00,Wunderground v.1.15,2013-08-21 11:40:00,
2013-08-21 07:45:00,64.8,63.6,30.11,NNW,348,0.0,0.0,96,0.00,,,0.00,Wunderground v.1.15,2013-08-21 11:45:00,
2013-08-21 07:55:00,65.6,64.1,30.11,NNW,348,0.0,0.0,95,0.00,,,0.00,Wunderground v.1.15,2013-08-21 11:55:00,
2013-08-21 08:05:00,66.4,64.9,30.11,NNW,348,0.0,0.0,95,0.00,,,0.00,Wunderground v.1.15,2013-08-21 12:05:00,
2013-08-21 08:10:00,67.4,65.9,30.11,NNW,348,0.0,0.0,95,0.00,,,0.00,Wunderground v.1.15,2013-08-21 12:10:00,
2013-08-21 08:20:00,69.4,66.3,30.11,NNW,348,0.0,0.0,90,0.00,,,0.00,Wunderground v.1.15,2013-08-21 12:20:00,
2013-08-21 08:25:00,70.4,65.7,30.11,NNW,348,0.0,0.0,85,0.00,,,0.00,Wunderground v.1.15,2013-08-21 12:25:00,
2013-08-21 08:30:00,71.3,65.2,30.11,NNW,348,0.0,0.0,81,0.00,,,0.00,Wunderground v.1.15,2013-08-21 12:30:00,
2013-08-21 08:40:00,73.3,65.3,30.11,North,350,0.0,0.0,76,0.00,,,0.00,Wunderground v.1.15,2013-08-21 12:40:00,
2013-08-21 08:50:00,74.4,64.4,30.11,NNE,15,0.0,0.0,71,0.00,,,0.00,Wunderground v.1.15,2013-08-21 12:50:00,
2013-08-21 08:55:00,75.1,65.5,30.11,NNE,15,0.0,0.0,72,0.00,,,0.00,Wunderground v.1.15,2013-08-21 12:55:00,
2013-08-21 09:00:00,75.3,64.8,30.11,NNE,17,0.0,0.0,70,0.00,,,0.00,Wunderground v.1.15,2013-08-21 13:00:00,
2013-08-21 09:10:00,76.5,65.1,30.11,ENE,67,0.0,0.0,68,0.00,,,0.00,Wunderground v.1.15,2013-08-21 13:10:00,
2013-08-21 09:15:00,76.8,65.4,30.11,ENE,67,0.0,0.0,68,0.00,,,0.00,Wunderground v.1.15,2013-08-21 13:15:00,
2013-08-21 09:25:00,77.6,64.9,30.11,ESE,103,0.0,0.0,65,0.00,,,0.00,Wunderground v.1.15,2013-08-21 13:25:00,
2013-08-21 09:30:00,78.1,65.4,30.11,ESE,103,0.0,0.0,65,0.00,,,0.00,Wunderground v.1.15,2013-08-21 13:30:00,
2013-08-21 09:40:00,79.2,65.5,30.11,ESE,103,0.0,0.0,63,0.00,,,0.00,Wunderground v.1.15,2013-08-21 13:40:00,
2013-08-21 09:45:00,79.8,64.7,30.11,ESE,103,0.0,0.0,60,0.00,,,0.00,Wunderground v.1.15,2013-08-21 13:45:00,
2013-08-21 09:55:00,79.8,65.2,30.11,ESE,103,0.0,0.0,61,0.00,,,0.00,Wunderground v.1.15,2013-08-21 13:55:00,
2013-08-21 10:00:00,80.3,65.6,30.11,ESE,103,0.0,0.0,61,0.00,,,0.00,Wunderground v.1.15,2013-08-21 14:00:00,
2013-08-21 10:10:00,81.1,65.4,30.11,NE,51,0.0,1.0,59,0.00,,,0.00,Wunderground v.1.15,2013-08-21 14:10:00,
2013-08-21 10:20:00,81.6,65.4,30.11,NE,41,1.0,1.0,58,0.00,,,0.00,Wunderground v.1.15,2013-08-21 14:20:00,
2013-08-21 10:30:00,82.0,64.2,30.11,South,177,0.0,0.0,55,0.00,,,0.00,Wunderground v.1.15,2013-08-21 14:30:00,
2013-08-21 10:35:00,82.6,64.8,30.11,South,177,0.0,0.0,55,0.00,,,0.00,Wunderground v.1.15,2013-08-21 14:35:00,
2013-08-21 10:45:00,84.0,62.2,30.11,NW,320,0.0,0.0,48,0.00,,,0.00,Wunderground v.1.15,2013-08-21 14:45:00,
2013-08-21 10:55:00,84.9,63.6,30.11,NNE,16,0.0,0.0,49,0.00,,,0.00,Wunderground v.1.15,2013-08-21 14:55:00,
2013-08-21 11:05:00,84.9,64.2,30.11,North,11,1.0,1.0,50,0.00,,,0.00,Wunderground v.1.15,2013-08-21 15:05:00,
2013-08-21 11:15:00,85.3,62.8,30.11,North,11,0.0,1.0,47,0.00,,,0.00,Wunderground v.1.15,2013-08-21 15:15:00,
2013-08-21 11:20:00,85.5,64.2,30.11,NE,38,0.0,0.0,49,0.00,,,0.00,Wunderground v.1.15,2013-08-21 15:20:00,
2013-08-21 11:30:00,85.9,62.7,30.11,NE,40,1.0,1.0,46,0.00,,,0.00,Wunderground v.1.15,2013-08-21 15:30:00,
2013-08-21 11:35:00,86.1,61.6,30.10,NNE,24,0.0,1.0,44,0.00,,,0.00,Wunderground v.1.15,2013-08-21 15:35:00,
2013-08-21 11:40:00,85.9,62.1,30.10,NE,36,0.0,0.0,45,0.00,,,0.00,Wunderground v.1.15,2013-08-21 15:40:00,
2013-08-21 11:45:00,85.9,60.8,30.10,NNE,33,0.0,0.0,43,0.00,,,0.00,Wunderground v.1.15,2013-08-21 15:45:00,
2013-08-21 11:55:00,85.9,62.7,30.10,NNE,26,0.0,1.0,46,0.00,,,0.00,Wunderground v.1.15,2013-08-21 15:55:00,
2013-08-21 12:00:00,85.9,62.7,30.10,North,355,0.0,0.0,46,0.00,,,0.00,Wunderground v.1.15,2013-08-21 16:00:00,
2013-08-21 12:05:00,86.5,64.5,30.10,SE,144,0.0,1.0,48,0.00,,,0.00,Wunderground v.1.15,2013-08-21 16:05:00,
2013-08-21 12:15:00,86.5,62.6,30.10,NNE,18,1.0,1.0,45,0.00,,,0.00,Wunderground v.1.15,2013-08-21 16:15:00,
2013-08-21 12:20:00,86.7,62.8,30.10,NNE,18,0.0,0.0,45,0.00,,,0.00,Wunderground v.1.15,2013-08-21 16:20:00,
2013-08-21 12:30:00,87.0,63.1,30.10,North,360,1.0,1.0,45,0.00,,,0.00,Wunderground v.1.15,2013-08-21 16:30:00,
2013-08-21 12:35:00,87.2,62.0,30.09,NW,309,1.0,1.0,43,0.00,,,0.00,Wunderground v.1.15,2013-08-21 16:35:00,
2013-08-21 12:45:00,87.4,62.8,30.09,NNE,20,1.0,5.0,44,0.00,,,0.00,Wunderground v.1.15,2013-08-21 16:45:00,
2013-08-21 12:50:00,86.5,62.0,30.08,WSW,251,1.0,1.0,44,0.00,,,0.00,Wunderground v.1.15,2013-08-21 16:50:00,
2013-08-21 13:00:00,86.3,63.1,30.08,NNE,24,1.0,1.0,46,0.00,,,0.00,Wunderground v.1.15,2013-08-21 17:00:00,
2013-08-21 13:10:00,87.2,62.0,30.08,North,5,1.0,1.0,43,0.00,,,0.00,Wunderground v.1.15,2013-08-21 17:10:00,
2013-08-21 13:20:00,87.8,61.9,30.08,NW,304,1.0,1.0,42,0.00,,,0.00,Wunderground v.1.15,2013-08-21 17:20:00,
2013-08-21 13:30:00,87.4,60.1,30.08,North,9,0.0,1.0,40,0.00,,,0.00,Wunderground v.1.15,2013-08-21 17:30:00,
2013-08-21 13:40:00,88.2,61.5,30.07,North,355,0.0,0.0,41,0.00,,,0.00,Wunderground v.1.15,2013-08-21 17:40:00,
2013-08-21 13:50:00,88.0,60.7,30.07,NNE,22,1.0,1.0,40,0.00,,,0.00,Wunderground v.1.15,2013-08-21 17:50:00,
2013-08-21 14:00:00,88.0,59.2,30.07,North,355,1.0,3.0,38,0.00,,,0.00,Wunderground v.1.15,2013-08-21 18:00:00,
2013-08-21 14:10:00,87.8,61.2,30.06,NNE,15,1.0,2.0,41,0.00,,,0.00,Wunderground v.1.15,2013-08-21 18:10:00,
2013-08-21 14:20:00,88.4,61.0,30.06,North,5,0.0,0.0,40,0.00,,,0.00,Wunderground v.1.15,2013-08-21 18:20:00,
2013-08-21 14:25:00,89.3,61.8,30.06,WNW,290,0.0,2.0,40,0.00,,,0.00,Wunderground v.1.15,2013-08-21 18:25:00,
2013-08-21 14:35:00,88.4,61.7,30.05,WSW,252,0.0,1.0,41,0.00,,,0.00,Wunderground v.1.15,2013-08-21 18:35:00,
2013-08-21 14:40:00,88.6,61.2,30.05,WNW,298,0.0,0.0,40,0.00,,,0.00,Wunderground v.1.15,2013-08-21 18:40:00,
2013-08-21 14:45:00,88.4,61.7,30.05,NE,44,0.0,0.0,41,0.00,,,0.00,Wunderground v.1.15,2013-08-21 18:45:00,
2013-08-21 14:55:00,88.2,60.8,30.05,North,350,1.0,1.0,40,0.00,,,0.00,Wunderground v.1.15,2013-08-21 18:55:00,
2013-08-21 15:00:00,88.4,61.0,30.05,North,355,1.0,3.0,40,0.00,,,0.00,Wunderground v.1.15,2013-08-21 19:00:00,
2013-08-21 15:10:00,88.4,61.7,30.05,NNW,346,1.0,1.0,41,0.00,,,0.00,Wunderground v.1.15,2013-08-21 19:10:00,
2013-08-21 15:15:00,88.4,61.0,30.05,SSE,157,0.0,1.0,40,0.00,,,0.00,Wunderground v.1.15,2013-08-21 19:15:00,
2013-08-21 15:25:00,88.8,61.4,30.05,South,169,0.0,0.0,40,0.00,,,0.00,Wunderground v.1.15,2013-08-21 19:25:00,
2013-08-21 15:35:00,89.0,60.8,30.04,North,9,1.0,1.0,39,0.00,,,0.00,Wunderground v.1.15,2013-08-21 19:35:00,
2013-08-21 15:40:00,88.6,61.2,30.04,WNW,285,1.0,1.0,40,0.00,,,0.00,Wunderground v.1.15,2013-08-21 19:40:00,
2013-08-21 15:45:00,88.4,60.3,30.04,North,351,1.0,1.0,39,0.00,,,0.00,Wunderground v.1.15,2013-08-21 19:45:00,
2013-08-21 15:50:00,88.6,62.6,30.03,North,350,0.0,0.0,42,0.00,,,0.00,Wunderground v.1.15,2013-08-21 19:50:00,
2013-08-21 15:55:00,89.3,61.8,30.03,SSW,207,0.0,2.0,40,0.00,,,0.00,Wunderground v.1.15,2013-08-21 19:55:00,
2013-08-21 16:05:00,88.0,61.3,30.03,South,175,0.0,0.0,41,0.00,,,0.00,Wunderground v.1.15,2013-08-21 20:05:00,
2013-08-21 16:15:00,87.6,62.3,30.03,South,175,0.0,0.0,43,0.00,,,0.00,Wunderground v.1.15,2013-08-21 20:15:00,
2013-08-21 16:25:00,89.0,62.2,30.03,WNW,301,0.0,0.0,41,0.00,,,0.00,Wunderground v.1.15,2013-08-21 20:25:00,
2013-08-21 16:30:00,89.0,60.8,30.03,North,351,0.0,0.0,39,0.00,,,0.00,Wunderground v.1.15,2013-08-21 20:30:00,
2013-08-21 16:35:00,88.8,60.7,30.02,SW,231,0.0,0.0,39,0.00,,,0.00,Wunderground v.1.15,2013-08-21 20:35:00,
2013-08-21 16:40:00,88.2,60.8,30.02,North,355,0.0,2.0,40,0.00,,,0.00,Wunderground v.1.15,2013-08-21 20:40:00,
2013-08-21 16:45:00,88.0,61.3,30.02,NNW,336,1.0,2.0,41,0.00,,,0.00,Wunderground v.1.15,2013-08-21 20:45:00,
2013-08-21 16:55:00,88.0,60.7,30.02,NW,322,0.0,1.0,40,0.00,,,0.00,Wunderground v.1.15,2013-08-21 20:55:00,
2013-08-21 17:00:00,88.2,60.8,30.02,NW,317,0.0,0.0,40,0.00,,,0.00,Wunderground v.1.15,2013-08-21 21:00:00,
2013-08-21 17:10:00,88.0,60.7,30.02,West,261,0.0,0.0,40,0.00,,,0.00,Wunderground v.1.15,2013-08-21 21:10:00,
2013-08-21 17:20:00,86.7,60.9,30.01,SSW,196,0.0,0.0,42,0.00,,,0.00,Wunderground v.1.15,2013-08-21 21:20:00,
2013-08-21 17:25:00,86.1,61.0,30.01,South,179,0.0,0.0,43,0.00,,,0.00,Wunderground v.1.15,2013-08-21 21:25:00,
2013-08-21 17:35:00,85.7,61.3,30.01,South,191,0.0,1.0,44,0.00,,,0.00,Wunderground v.1.15,2013-08-21 21:35:00,
2013-08-21 17:45:00,85.1,62.0,30.01,West,263,0.0,1.0,46,0.00,,,0.00,Wunderground v.1.15,2013-08-21 21:45:00,
2013-08-21 17:55:00,85.1,62.0,30.01,South,178,0.0,0.0,46,0.00,,,0.00,Wunderground v.1.15,2013-08-21 21:55:00,
2013-08-21 18:05:00,84.9,61.8,30.02,WNW,300,0.0,0.0,46,0.00,,,0.00,Wunderground v.1.15,2013-08-21 22:05:00,
2013-08-21 18:10:00,84.5,61.4,30.02,East,84,0.0,0.0,46,0.00,,,0.00,Wunderground v.1.15,2013-08-21 22:10:00,
2013-08-21 18:20:00,84.1,61.7,30.01,WSW,246,0.0,0.0,47,0.00,,,0.00,Wunderground v.1.15,2013-08-21 22:20:00,
2013-08-21 18:30:00,83.8,62.0,30.01,WSW,246,0.0,0.0,48,0.00,,,0.00,Wunderground v.1.15,2013-08-21 22:30:00,
2013-08-21 18:35:00,83.6,62.4,30.00,WSW,246,0.0,0.0,49,0.00,,,0.00,Wunderground v.1.15,2013-08-21 22:35:00,
2013-08-21 18:45:00,83.4,62.8,30.00,WSW,246,0.0,0.0,50,0.00,,,0.00,Wunderground v.1.15,2013-08-21 22:45:00,
2013-08-21 18:50:00,83.2,62.6,30.00,WSW,246,0.0,0.0,50,0.00,,,0.00,Wunderground v.1.15,2013-08-21 22:50:00,
2013-08-21 18:55:00,82.8,62.3,30.00,WSW,246,0.0,0.0,50,0.00,,,0.00,Wunderground v.1.15,2013-08-21 22:55:00,
2013-08-21 19:00:00,82.6,62.6,30.00,WSW,246,0.0,0.0,51,0.00,,,0.00,Wunderground v.1.15,2013-08-21 23:00:00,
2013-08-21 19:10:00,82.2,62.8,30.00,WSW,246,0.0,0.0,52,0.00,,,0.00,Wunderground v.1.15,2013-08-21 23:10:00,
2013-08-21 19:20:00,81.4,63.7,30.00,WSW,246,0.0,0.0,55,0.00,,,0.00,Wunderground v.1.15,2013-08-21 23:20:00,
2013-08-21 19:25:00,80.9,64.7,30.00,WSW,246,0.0,0.0,58,0.00,,,0.00,Wunderground v.1.15,2013-08-21 23:25:00,
2013-08-21 19:30:00,80.5,64.4,30.00,WSW,246,0.0,0.0,58,0.00,,,0.00,Wunderground v.1.15,2013-08-21 23:30:00,
2013-08-21 19:40:00,79.6,64.5,30.01,WSW,246,0.0,0.0,60,0.00,,,0.00,Wunderground v.1.15,2013-08-21 23:40:00,
2013-08-21 19:45:00,79.0,63.9,30.01,WSW,246,0.0,0.0,60,0.00,,,0.00,Wunderground v.1.15,2013-08-21 23:45:00,
2013-08-21 19:55:00,78.3,64.7,30.00,WSW,246,0.0,0.0,63,0.00,,,0.00,Wunderground v.1.15,2013-08-21 23:55:00,
2013-08-21 20:00:00,77.9,64.3,30.00,WSW,246,0.0,0.0,63,0.00,,,0.00,Wunderground v.1.15,2013-08-22 00:00:00,
2013-08-21 20:05:00,77.6,64.5,30.00,WSW,246,0.0,0.0,64,0.00,,,0.00,Wunderground v.1.15,2013-08-22 00:05:00,
2013-08-21 20:15:00,76.8,64.6,30.00,WSW,246,0.0,0.0,66,0.00,,,0.00,Wunderground v.1.15,2013-08-22 00:15:00,
2013-08-21 20:20:00,76.5,65.1,30.00,WSW,246,0.0,0.0,68,0.00,,,0.00,Wunderground v.1.15,2013-08-22 00:20:00,
2013-08-21 20:25:00,76.1,65.2,30.00,WSW,246,0.0,0.0,69,0.00,,,0.00,Wunderground v.1.15,2013-08-22 00:25:00,
2013-08-21 20:30:00,75.8,65.3,30.00,WSW,246,0.0,0.0,70,0.00,,,0.00,Wunderground v.1.15,2013-08-22 00:30:00,
2013-08-21 20:35:00,75.4,65.3,30.00,WSW,246,0.0,0.0,71,0.00,,,0.00,Wunderground v.1.15,2013-08-22 00:35:00,
2013-08-21 20:45:00,74.7,65.1,30.00,WSW,246,0.0,0.0,72,0.00,,,0.00,Wunderground v.1.15,2013-08-22 00:45:00,
2013-08-21 20:50:00,74.4,65.2,30.01,WSW,246,0.0,0.0,73,0.00,,,0.00,Wunderground v.1.15,2013-08-22 00:50:00,
2013-08-21 21:00:00,73.9,65.5,30.01,WSW,246,0.0,0.0,75,0.00,,,0.00,Wunderground v.1.15,2013-08-22 01:00:00,
2013-08-21 21:10:00,73.3,65.3,30.01,WSW,246,0.0,0.0,76,0.00,,,0.00,Wunderground v.1.15,2013-08-22 01:10:00,
2013-08-21 21:20:00,72.8,64.8,30.01,WSW,246,0.0,0.0,76,0.00,,,0.00,Wunderground v.1.15,2013-08-22 01:20:00,
2013-08-21 21:25:00,72.7,65.1,30.01,WSW,246,0.0,0.0,77,0.00,,,0.00,Wunderground v.1.15,2013-08-22 01:25:00,
2013-08-21 21:35:00,72.3,65.1,30.01,WSW,246,0.0,0.0,78,0.00,,,0.00,Wunderground v.1.15,2013-08-22 01:35:00,
2013-08-21 21:45:00,72.1,64.9,30.01,WSW,246,0.0,0.0,78,0.00,,,0.00,Wunderground v.1.15,2013-08-22 01:45:00,
2013-08-21 21:50:00,72.0,64.8,30.01,WSW,246,0.0,0.0,78,0.00,,,0.00,Wunderground v.1.15,2013-08-22 01:50:00,
2013-08-21 21:55:00,72.0,65.1,30.01,WSW,246,0.0,0.0,79,0.00,,,0.00,Wunderground v.1.15,2013-08-22 01:55:00,
2013-08-21 22:00:00,71.6,64.7,30.01,WSW,246,0.0,0.0,79,0.00,,,0.00,Wunderground v.1.15,2013-08-22 02:00:00,
2013-08-21 22:05:00,71.6,64.7,30.01,WSW,246,0.0,0.0,79,0.00,,,0.00,Wunderground v.1.15,2013-08-22 02:05:00,
2013-08-21 22:10:00,71.5,64.6,30.01,WSW,246,0.0,0.0,79,0.00,,,0.00,Wunderground v.1.15,2013-08-22 02:10:00,
2013-08-21 22:20:00,71.3,64.4,30.01,WSW,246,0.0,0.0,79,0.00,,,0.00,Wunderground v.1.15,2013-08-22 02:20:00,
2013-08-21 22:30:00,71.1,64.3,30.01,WSW,246,0.0,0.0,79,0.00,,,0.00,Wunderground v.1.15,2013-08-22 02:30:00,
2013-08-21 22:35:00,71.1,64.3,30.02,WSW,246,0.0,0.0,79,0.00,,,0.00,Wunderground v.1.15,2013-08-22 02:35:00,
2013-08-21 22:45:00,70.8,64.0,30.02,WSW,246,0.0,0.0,79,0.00,,,0.00,Wunderground v.1.15,2013-08-22 02:45:00,
2013-08-21 22:50:00,70.8,64.3,30.01,WSW,246,0.0,0.0,80,0.00,,,0.00,Wunderground v.1.15,2013-08-22 02:50:00,
2013-08-21 22:55:00,70.6,64.1,30.01,WSW,246,0.0,0.0,80,0.00,,,0.00,Wunderground v.1.15,2013-08-22 02:55:00,
2013-08-21 23:00:00,70.4,63.9,30.01,WSW,246,0.0,0.0,80,0.00,,,0.00,Wunderground v.1.15,2013-08-22 03:00:00,
2013-08-21 23:10:00,70.3,63.8,30.01,WSW,246,0.0,0.0,80,0.00,,,0.00,Wunderground v.1.15,2013-08-22 03:10:00,
2013-08-21 23:20:00,70.1,63.6,30.00,WSW,246,0.0,0.0,80,0.00,,,0.00,Wunderground v.1.15,2013-08-22 03:20:00,
2013-08-21 23:30:00,69.9,63.8,30.00,WSW,246,0.0,0.0,81,0.00,,,0.00,Wunderground v.1.15,2013-08-22 03:30:00,
2013-08-21 23:35:00,69.8,63.7,30.00,WSW,246,0.0,0.0,81,0.00,,,0.00,Wunderground v.1.15,2013-08-22 03:35:00,
2013-08-21 23:45:00,69.6,63.5,30.00,WSW,246,0.0,0.0,81,0.00,,,0.00,Wunderground v.1.15,2013-08-22 03:45:00,
2013-08-21 23:50:00,69.6,63.5,29.99,WSW,246,0.0,0.0,81,0.00,,,0.00,Wunderground v.1.15,2013-08-22 03:50:00,